Home > Weather > Modesto > Past weeks

Flag for U.S.A. Weather for the Past 2 Weeks in Modesto, California, U.S.A.

Now
47 °F

Fog.


Feels Like: 47 °F
Forecast: 47 / 70 °F
Wind: No wind

Location: Modesto City-County-Sham Field

Current Time: Feb 12, 2016 at 5:20:28 AM

Latest Report: Feb 12, 2016 at 5:00 AM


Visibility: 4 mi

Pressure: 30.18 "Hg

Humidity: 90%

Dew point: 44 °F

Location of ModestoLocation

Historic Weather in Modesto — Graph

°F

Modesto Temperature Yesterday

Maximum temperature yesterday: 72 °F (at 1:53 PM)
Minimum temperature yesterday: 44 °F (at 3:03 AM)
Average temperature yesterday: 57 °F

High & Low Weather Summary for the Past Weeks

 TemperatureHumidityPressure
High72 °F (Feb 8, 2:53 PM)100% (Jan 28, 6:53 AM)30.49 "Hg (Jan 28, 6:53 AM)
Low35 °F (Feb 3, 6:53 AM)28% (Feb 1, 3:53 PM)29.71 "Hg (Jan 31, 2:53 PM)
Average52 °F75%30.21 "Hg
* Reported Jan 28 4:00 AM — Feb 12 3:53 AM, Modesto, Weather by CustomWeather, © 2016

Note: Actual official high and low records may vary slightly from our data, if they occured in-between our weather recording intervals... More about our weather records

Advertising

Modesto Weather History for the Previous 24 Hours

 ConditionsComfort  
Time TempWeatherWind HumidityBarometerVisibility
3:53 AM
Fri, Feb 12
49 °FFog.No wind90%30.17 "Hg0 mi
3:00 AM48 °FFog.No wind96%30.18 "Hg2 mi
1:53 AM49 °FFog.No wind93%30.18 "Hg2 mi
12:53 AM53 °FFog.No wind89%30.17 "Hg3 mi
12:01 AM51 °FFog.No wind89%30.17 "Hg3 mi
10:53 PM
Thu, Feb 11
54 °FFog.No wind90%30.16 "Hg3 mi
9:53 PM56 °FClear.No wind84%30.16 "Hg5 mi
8:53 PM58 °FClear.No wind78%30.15 "Hg5 mi
7:53 PM62 °FClear.No wind70%30.14 "Hg6 mi
6:53 PM64 °FClear.No wind68%30.14 "Hg6 mi
5:53 PM65 °FClear.No wind68%30.13 "Hg6 mi
4:53 PM70 °FSunny.No wind59%30.12 "Hg5 mi
3:53 PM71 °FSunny.3 mph55%30.11 "Hg5 mi
2:53 PM72 °FSunny.7 mph49%30.11 "Hg7 mi
1:53 PM72 °FSunny.No wind46%30.11 "Hg7 mi
12:53 PM71 °FSunny.8 mph53%30.13 "Hg7 mi
11:53 AM68 °FSunny.7 mph61%30.16 "Hg6 mi
10:53 AM63 °FSunny.No wind68%30.18 "Hg6 mi
9:53 AM58 °FSunny.5 mph78%30.18 "Hg7 mi
8:53 AM50 °FFog.3 mph89%30.17 "Hg5 mi
7:53 AM47 °FFog.3 mph90%30.17 "Hg3 mi
6:53 AM44 °FFog.6 mph96%30.15 "Hg3 mi
5:53 AM46 °FFog.3 mph93%30.15 "Hg2 mi
Weather by CustomWeather, © 2016

See weather overviewHow to use our weather pages